Overview Statistics Trail Chart Weather Telemetry Raw packets
 

This is the latest recevied weather packets stored in our database for station/object 9A7DI-13. If no packets are shown the sender has not sent any weather packets the latest 10 day(s).

<< 11 12 13 14 15 16 17 >>
Time Temp. Humidity Pressure Rain* Wind** Luminosity Snow
1788484602 18.33° C 81% 1028.8 hPa - - - -
1788484002 17.78° C 83% 1029 hPa - - - -
1788483402 17.78° C 81% 1028.9 hPa - - - -
1788482802 17.78° C 79% 1029.1 hPa - - - -
1788482202 18.33° C 77% 1029.1 hPa - - - -
1788481602 17.78° C 77% 1029.1 hPa - - - -
1788481002 17.78° C 77% 1029.1 hPa - - - -
1788480402 17.22° C 76% 1029.2 hPa - - - -
1788479802 17.22° C 78% 1028.9 hPa - - - -
1788479202 17.22° C 80% 1028.3 hPa - - - -
1788478602 17.22° C 76% 1028.1 hPa - - - -
1788478002 17.22° C 77% 1028 hPa - - - -
1788477402 16.67° C 78% 1027.8 hPa - - - -
1788476802 16.67° C 78% 1027.9 hPa - - - -
1788476202 16.67° C 74% 1027.9 hPa - - - -
1788475602 17.22° C 72% 1027.9 hPa - - - -
1788475002 17.22° C 74% 1027.9 hPa - - - -
1788474402 17.22° C 74% 1027.8 hPa - - - -
1788473802 17.22° C 72% 1027.7 hPa - - - -
1788473202 17.78° C 69% 1027.7 hPa - - - -
1788472602 16.67° C 75% 1027.7 hPa - - - -
1788472002 17.22° C 71% 1027.6 hPa - - - -
1788471402 17.78° C 69% 1027.7 hPa - - - -
1788470802 17.78° C 70% 1027.6 hPa - - - -
1788470215 17.22° C 74% 1027.5 hPa - - - -

* Rain since midnight (hover to see other rain measurements)
** Current wind speed in m/s (hover to see current wind gust speed)